Location: Spring Creek
(38.2870°N, 100.2160°W)
Time: 07:36:49
(UTC+00:00)

UNK - Pass Details

Date: 08 May 2021
Orbit: 667 x 685 km, 98.2° (Epoch: 21 June)

Event Time Altitude Azimuth Distance (km) Brightness Sun altitude
Exits shadow 08:36:45 54° 348° (NNW) 820 4.3 -27.9°
Drops below altitude 10° 08:40:18 10° 348° (NNW) 2,107 6.8 -27.5°
Sets 08:42:32 0° 348° (NNW) 3,023 7.7 -27.2°
